Location: Catenanuova
(37.5690°N, 14.6870°E)
Time: 14:16:45
(UTC+01:00)

ARIANE 6 FM1 Upper Stage - Visible Passes

Search period start: 09 December 2025 00:00
Search period end: 19 December 2025 00:00
Orbit: 522 x 611 km, 62.0° (Epoch: 09 December)

Date Brightness Start Highest point End Pass type
(mag) Time Alt. Az. Time Alt. Az. Time Alt. Az.
09 Dec 6.0 17:34:44 10° WNW 17:37:17 16° WSW 17:39:52 10° SSW visible
10 Dec 6.7 17:37:00 10° WSW 17:37:34 10° WSW 17:38:07 10° WSW visible
11 Dec 6.2 05:55:10 10° SE 05:56:58 13° ESE 05:58:46 10° E visible
12 Dec 5.6 05:54:16 10° SSE 05:57:15 20° ESE 06:00:13 10° ENE visible
13 Dec 4.7 05:53:58 10° S 05:57:35 31° ESE 06:01:08 10° NE visible
14 Dec 3.6 05:53:59 10° SSW 05:57:55 49° ESE 06:01:47 10° NE visible
15 Dec 2.7 05:54:13 10° SSW 05:58:18 79° ESE 06:02:18 10° NE visible
16 Dec 2.5 05:54:39 10° SW 05:58:41 65° NW 06:02:41 10° NNE visible
17 Dec 5.4 04:19:17 14° SE 04:20:26 16° ESE 04:22:56 10° ENE visible
17 Dec 2.9 05:55:31 11° WSW 05:59:08 42° NW 06:02:56 10° NNE visible
18 Dec 5.1 04:22:07 20° E 04:22:07 20° E 04:24:00 10° ENE visible
18 Dec 3.5 05:58:16 23° W 05:59:36 28° NW 06:03:06 10° NNE visible
